Youngstown, OH

7:50 AM EST on December 16, 2019 (GMT -0500)
Youngstown-Warren Regional

Weather History for KYNG - September, 2019

Change the Weather History Date:

Sunday, September 29, 2019

  Actual Average Record
Temperature  
Mean Temperature 66 °F 57 °F  
Max Temperature 70 °F 67 °F 90 °F (1953)
Min Temperature 61 °F 47 °F 27 °F (1942)
Degree Days  
Heating Degree Days 0 9  
Month to date heating degree days 24 137  
Since 1 July heating degree days 30 175  
Cooling Degree Days 0 1  
Month to date cooling degree days 93 51  
Year to date cooling degree days 757 537  
Growing Degree Days 16 (Base 50)    
Moisture  
Dew Point 59 °F    
Average Humidity 78    
Maximum Humidity 93    
Minimum Humidity 65    
Precipitation  
Precipitation T in 0.11 in 1.08 in (2016)
Month to date precipitation 4.51 3.63  
Year to date precipitation 39.03 29.85  
Snow  
Snow 0.00 in 0.00 in - ()
Month to date snowfall 0.0 0.0  
Since 1 July snowfall 0.0 0.0  
Since 1 September snowfall 0.0 0.0  
Snow Depth 0.00 in    
Sea Level Pressure  
Sea Level Pressure 30.25 in    
Wind  
Wind Speed 5 mph ()    
Max Wind Speed 12 mph    
Max Gust Speed 15 mph    
Visibility 10.0 miles    
Events Rain    
T = Trace of Precipitation, MM = Missing Value Source: Averaged Metar Reports

Daily Weather History Graph

Daily Weather History Graph

Search for Another Location

Airport or City:

Astronomy

Sep. 29, 2019 Rise Set
Actual Time 7:17 AM EDT 7:08 PM EDT
Civil Twilight 6:49 AM EDT 7:35 PM EDT
Nautical Twilight 6:17 AM EDT 8:07 PM EDT
Astronomical Twilight 5:45 AM EDT 8:40 PM EDT
Moon 8:05 AM EDT (9/29) 8:07 PM EDT (9/29)
Length of Visible Light 12h 46m
Length of Day
11h 51m
New Moon, 1% of the Moon is Illuminated
Sep 29
New Moon
Oct 5
First Quarter
Oct 13
Full
Oct 21
Last Quarter
Oct 27
New

Hourly Weather History & Observations

Time (EDT) Temp. Dew Point Humidity Pressure Visibility Wind Dir Wind Speed Gust Speed Precip Events Conditions
12:03 AM 64.9 °F 61.0 °F 87% 30.22 in 10.0 mi North 3.5 mph - N/A   Overcast
12:29 AM 64.4 °F 60.8 °F 88% 30.23 in 10.0 mi NNW 3.5 mph - N/A   Overcast
12:51 AM 64.9 °F 62.1 °F 90% 30.22 in 10.0 mi NW 3.5 mph - N/A   Overcast
1:51 AM 64.9 °F 60.1 °F 84% 30.23 in 10.0 mi North 8.1 mph - N/A   Overcast
2:51 AM 64.0 °F 60.1 °F 87% 30.23 in 10.0 mi North 3.5 mph - N/A   Overcast
3:51 AM 64.0 °F 60.1 °F 87% 30.22 in 10.0 mi NE 4.6 mph - N/A   Overcast
4:51 AM 64.0 °F 60.1 °F 87% 30.24 in 10.0 mi North 4.6 mph - N/A   Overcast
5:25 AM 62.1 °F 59.0 °F 90% 30.25 in 10.0 mi NNE 5.8 mph - N/A   Overcast
5:51 AM 62.1 °F 57.9 °F 86% 30.25 in 10.0 mi NE 8.1 mph - N/A   Mostly Cloudy
6:51 AM 61.0 °F 55.9 °F 83% 30.27 in 10.0 mi ENE 4.6 mph - N/A   Mostly Cloudy
7:51 AM 61.0 °F 55.9 °F 83% 30.29 in 10.0 mi ENE 3.5 mph - N/A   Overcast
8:51 AM 63.0 °F 57.0 °F 81% 30.30 in 10.0 mi ENE 4.6 mph - N/A   Mostly Cloudy
9:51 AM 64.9 °F 55.9 °F 73% 30.31 in 10.0 mi East 8.1 mph - N/A   Mostly Cloudy
10:51 AM 66.9 °F 57.0 °F 70% 30.32 in 10.0 mi ENE 6.9 mph - N/A   Mostly Cloudy
11:51 AM 69.1 °F 57.0 °F 65% 30.31 in 10.0 mi SE 4.6 mph - N/A   Overcast
12:51 PM 69.1 °F 57.0 °F 65% 30.29 in 10.0 mi ENE 3.5 mph - N/A   Overcast
1:51 PM 70.0 °F 59.0 °F 68% 30.28 in 10.0 mi ENE 6.9 mph - N/A   Overcast
2:51 PM 69.1 °F 57.9 °F 68% 30.27 in 10.0 mi East 4.6 mph - N/A   Overcast
3:30 PM 70.0 °F 59.0 °F 68% 30.27 in 10.0 mi East 5.8 mph - N/A   Overcast
3:51 PM 69.1 °F 59.0 °F 70% 30.26 in 10.0 mi ENE 9.2 mph - 0.00 in Rain Light Rain
4:51 PM 70.0 °F 59.0 °F 68% 30.24 in 10.0 mi ENE 9.2 mph - 0.00 in   Overcast
5:51 PM 69.1 °F 60.1 °F 73% 30.22 in 10.0 mi East 5.8 mph - N/A   Overcast
6:51 PM 68.0 °F 57.9 °F 70% 30.22 in 10.0 mi ESE 5.8 mph - N/A   Overcast
7:51 PM 66.9 °F 57.9 °F 73% 30.22 in 10.0 mi East 5.8 mph - N/A   Overcast
8:51 PM 64.0 °F 59.0 °F 84% 30.23 in 10.0 mi Calm Calm - N/A   Overcast
9:51 PM 66.0 °F 59.0 °F 78% 30.22 in 10.0 mi SE 4.6 mph - N/A   Overcast
10:51 PM 63.0 °F 57.9 °F 84% 30.21 in 10.0 mi ESE 5.8 mph - N/A   Overcast
11:51 PM 64.0 °F 59.0 °F 84% 30.20 in 10.0 mi ESE 5.8 mph - N/A   Mostly Cloudy